Home   Weather   Worthing   Past weeks
Flag for United Kingdom

Past Weather in Worthing, England, United Kingdom — Yesterday and Last 2 Weeks

Now
52 °F

Passing clouds.


Feels Like: 51 °F
Forecast: 67 / 57 °F
Wind: 3 mph from West

Location: London / Gatwick Airport

Current Time: Jul 16, 2019 at 2:24:23 am

Latest Report: Jul 16, 2019 at 1:50 am


Visibility: N/A

Pressure: 30.15 "Hg

Humidity: 94%

Dew Point: 50 °F

Location of WorthingLocation

Past Weather in Worthing — Graph

°F

Worthing Temperature Yesterday

Maximum temperature yesterday: 70 °F (at 3:50 pm)
Minimum temperature yesterday: 54 °F (at 3:20 am)
Average temperature yesterday: 61 °F

High & Low Weather Summary for the Past Weeks

 TemperatureHumidityPressure
High79 °F (Jul 5, 3:50 pm)100% (Jul 3, 4:20 am)30.33 "Hg (Jul 3, 4:20 am)
Low50 °F (Jul 4, 3:20 am)41% (Jul 12, 6:20 pm)29.89 "Hg (Jul 6, 12:50 pm)
Average64 °F68%30.12 "Hg
* Reported Jul 1 12:20 am — Jul 16 12:50 am, Worthing. Weather by CustomWeather, © 2019

Note: Actual official high and low records may vary slightly from our data, if they occured in-between our weather recording intervals... More about our weather records

Advertising

Worthing Weather History for the Previous 24 Hours

Scroll right to see more
 ConditionsComfort  
Time TempWeatherWind HumidityBarometerVisibility
12:50 am
Tue, Jul 16
54 °FPassing clouds.2 mph94%30.18 "HgN/A
12:20 am55 °FPassing clouds.1 mph88%30.18 "HgN/A
11:50 pm
Mon, Jul 15
55 °FPassing clouds.1 mph88%30.18 "HgN/A
11:20 pm55 °FClear.1 mph88%30.18 "Hg10 mi
10:50 pm59 °FClear.2 mph77%30.18 "Hg10 mi
10:20 pm59 °FClear.3 mph77%30.18 "Hg10 mi
9:50 pm59 °FClear.5 mph77%30.18 "Hg10 mi
9:20 pm61 °FPassing clouds.5 mph72%30.15 "HgN/A
8:50 pm64 °FPassing clouds.8 mph64%30.15 "HgN/A
8:20 pm64 °FPassing clouds.5 mph64%30.15 "HgN/A
7:50 pm66 °FPassing clouds.6 mph60%30.15 "HgN/A
7:20 pm68 °FPassing clouds.6 mph56%30.15 "HgN/A
6:50 pm68 °FPassing clouds.7 mph56%30.15 "HgN/A
6:20 pm68 °FPassing clouds.9 mph56%30.15 "HgN/A
5:50 pm68 °FPassing clouds.8 mph56%30.15 "HgN/A
5:20 pm66 °FPassing clouds.8 mph60%30.15 "HgN/A
4:50 pm70 °FPassing clouds.7 mph53%30.15 "HgN/A
4:20 pm68 °FPassing clouds.8 mph53%30.15 "HgN/A
3:50 pm70 °FScattered clouds.6 mph50%30.18 "HgN/A
3:20 pm68 °FScattered clouds.7 mph53%30.18 "HgN/A
2:50 pm66 °FScattered clouds.7 mph60%30.18 "HgN/A
2:20 pm66 °FPartly sunny.5 mph56%30.18 "HgN/A
1:50 pm66 °FScattered clouds.7 mph56%30.18 "HgN/A
1:20 pm64 °FScattered clouds.6 mph60%30.18 "HgN/A
12:50 pm64 °FScattered clouds.6 mph60%30.21 "HgN/A
12:20 pm63 °FPartly sunny.6 mph64%30.21 "HgN/A
11:50 am61 °FPartly sunny.8 mph68%30.21 "HgN/A
11:20 am61 °FPartly sunny.9 mph68%30.21 "HgN/A
10:50 am61 °FPartly sunny.8 mph68%30.21 "HgN/A
10:20 am59 °FPartly sunny.8 mph72%30.21 "HgN/A
9:50 am59 °FPartly sunny.9 mph68%30.21 "HgN/A
9:20 am59 °FPartly sunny.10 mph72%30.21 "HgN/A
8:50 am59 °FOvercast.9 mph68%30.21 "HgN/A
8:20 am57 °FBroken clouds.10 mph72%30.21 "HgN/A
7:50 am57 °FScattered clouds.6 mph77%30.18 "HgN/A
7:20 am57 °FOvercast.5 mph77%30.18 "HgN/A
6:50 am57 °FPartly sunny.6 mph77%30.18 "HgN/A
6:20 am55 °FPartly sunny.7 mph82%30.21 "HgN/A
5:50 am55 °FPartly sunny.6 mph82%30.21 "HgN/A
5:20 am54 °FPartly sunny.5 mph88%30.21 "HgN/A
4:50 am54 °FPassing clouds.5 mph88%30.18 "HgN/A
4:20 am54 °FPassing clouds.5 mph88%30.18 "HgN/A
3:50 am54 °FClear.6 mph88%30.18 "Hg10 mi
3:20 am54 °FClear.6 mph88%30.18 "Hg10 mi
2:50 am55 °FPassing clouds.5 mph82%30.21 "HgN/A
2:20 am55 °FClear.6 mph82%30.21 "Hg10 mi
Weather by CustomWeather, © 2019

See weather overview

LIVE PARTIAL LUNAR ECLIPSE – Watch the eclipse as it happens